Volver al catálogo

RAPSAT-1A

ActivoCienciaSSO
NORAD 63228·PAYLOAD·🇺🇸 United States
Este nombre de satélite aún no ha sido confirmado por fuentes oficiales.

Lanzado Mar 15, 2025 desde Vandenberg Space Force Base

Loading…

Próximos Pases (próximas 24 horas)

TLE

ActualizadoSource: Space-Track

Época: Sep 14, 2026, 03:05 UTC

1 63228U 25052U   26257.12883664  .00004174  00000-0  17318-3 0  9994
2 63228  97.3776 148.5561 0004791 175.0257 185.1029 15.24400774 83416

Sigue RAPSAT-1A en tiempo real con AllMySat

Download on the App Store